506  
AXUS43 KGID 180802  
MISGRI  
 
GID CWA HOURLY WEATHER ROUNDUP  
NATIONAL WEATHER SERVICE HASTINGS NE  
300 AM CDT FRI APR 18 2014  
 
NOTE: "FAIR" INDICATES FEW OR NO CLOUDS BELOW 12,000 FEET WITH NO  
SIGNIFICANT WEATHER AND/OR OBSTRUCTIONS TO VISIBILITY.  
   
..SOUTH CENTRAL NEBRASKA
 
 
 
CITY SKY/WX TMP DP RH WIND PRES REMARKS  
GRAND ISLAND CLEAR 39 28 64 S10 30.20F WCI 32  
HASTINGS CLEAR 40 27 59 S9 30.19F WCI 34  
KEARNEY CLEAR 37 28 70 S10 30.17F WCI 30  
ORD CLEAR 34 27 75 E3 30.16F  
YORK CLEAR 37 27 65 S7 30.22S WCI 32  
AURORA CLEAR 37 28 71 S7 30.20F WCI 31  
LEXINGTON CLEAR 38 32 77 S7 30.15F WCI 33  
HOLDREGE CLEAR 37 30 73 S9 30.16F WCI 31  
HEBRON CLEAR 37 29 73 S6 30.23F WCI 32  
   
..NEBRASKA PANHANDLE
 
 
 
CITY SKY/WX TMP DP RH WIND PRES REMARKS  
CHADRON CLEAR 47 37 68 SW12 29.88S  
ALLIANCE CLEAR 40 36 86 S13 29.94F WCI 32  
SCOTTSBLUFF CLEAR 52 35 52 SW7G21 29.94S  
SIDNEY CLEAR 41 35 79 S16 30.00F  
   
..WESTERN AND NORTH CENTRAL NEBRASKA
 
 
 
CITY SKY/WX TMP DP RH WIND PRES REMARKS  
VALENTINE CLEAR 43 31 62 S15 30.03F  
AINSWORTH CLEAR 41 30 64 S16G24 30.06F  
ONEILL CLEAR 38 25 58 S10 30.14F WCI 31  
BROKEN BOW CLEAR 38 30 73 S9 30.13F WCI 31  
IMPERIAL CLEAR 41 37 86 S12 30.08F  
NORTH PLATTE CLEAR 43 37 79 S13 30.10F  
MCCOOK CLEAR 40 37 89 S8 30.14F WCI 34  
   
..EASTERN NEBRASKA
 
 
 
CITY SKY/WX TMP DP RH WIND PRES REMARKS  
NORFOLK MOCLDY 38 26 62 S9 30.20F WCI 31  
SO SIOUX CITY CLEAR 32 25 75 SE6 30.25F WCI 26  
TEKAMAH CLEAR 30 22 72 CALM 30.25F  
COLUMBUS CLEAR 36 25 64 SE7 30.22F WCI 30  
ALBION CLEAR 33 25 73 SE5 30.19F WCI 28  
OMAHA EPPLEY PTCLDY 33 27 78 CALM 30.26S  
OFFUTT AFB CLEAR 31 30 98 CALM 30.25S  
MILLARD CLEAR 35 28 78 CALM 30.25F  
LINCOLN CLEAR 38 26 62 CALM 30.26S  
NEBRASKA CITY CLEAR 36 27 69 S6 30.26S WCI 31  
BEATRICE FAIR 38 31 75 S7 30.25S HAZE WCI 33  
FALLS CITY CLEAR 33 28 81 CALM 30.27S  
   
..NORTHERN KANSAS
 
 
 
CITY SKY/WX TMP DP RH WIND PRES REMARKS  
GOODLAND CLEAR 38 35 89 S17 30.12F WCI 28  
HILL CITY CLEAR 39 36 89 S6 30.18F WCI 35  
PHILLIPSBURG CLEAR 39 32 75 SE7 30.20S WCI 34  
SMITH CENTER CLEAR 34 27 75 SE7 30.22R WCI 28  
BELOIT CLEAR 37 28 70 SE6 30.23F WCI 33  
HAYS CLEAR 36 30 80 S5 30.22S WCI 32  
RUSSELL CLEAR 39 34 82 S12 30.21F WCI 32  
CONCORDIA CLEAR 40 32 73 S16 30.23F WCI 31  
SALINA CLEAR 35 29 78 S7 30.26F HAZE WCI 29  
TOPEKA CLEAR 36 31 82 CALM 30.28F HAZE  
 
CLICK HERE TO GO TO PREVIOUS BULLETINS.

The Nexlab NE Page
The Nexlab KS Page Main Text Page